time_stamp(utc),avg(mph),gust(mph),direction(deg),12m_air_temp(f),sonic_u(cm/s),sonic_v(cm/s),sonic_w(cm/s),pressure,2m_air_temp(f),pyranometer(W/m^2)
"2018-02-01 00:02:42+00",16.8,21.8,,30.7,-198,-690,-3,1020.06,30.2,0
"2018-02-01 00:07:42+00",17.4,22.4,,30.8,-210,-721,-3,1019.82,30.3,0
"2018-02-01 00:12:42+00",20.3,24.3,,31,-329,-810,-20,1020.04,30.5,0
"2018-02-01 00:17:42+00",17.7,22.7,,31.2,-315,-705,2,1020.1,30.7,0
"2018-02-01 00:22:42+00",17.6,19.6,,31.4,-362,-674,-1,1020.27,30.8,0
"2018-02-01 00:27:42+00",18.7,23.7,,31.5,-341,-736,-6,1020.25,30.9,0
"2018-02-01 00:32:42+00",16.1,18.1,,31.6,-302,-630,8,1020.35,31,0
"2018-02-01 00:37:42+00",21.7,24.7,,31.7,-368,-857,-6,1020.3,31.1,0
"2018-02-01 00:42:42+00",17.6,22.6,,31.7,-422,-660,10,1020.53,31.2,0
"2018-02-01 00:47:42+00",18.3,21.3,,31.9,-461,-682,-6,1020.49,31.4,0
"2018-02-01 00:52:42+00",22.8,25.8,,32,-480,-854,-16,1020.32,31.5,0
"2018-02-01 00:57:42+00",19.7,22.7,,32,-377,-759,-5,1020.12,31.5,0
"2018-02-01 01:02:42+00",21.9,26.9,,32.1,-406,-854,-13,1020.01,31.6,0
"2018-02-01 01:07:42+00",18.2,23.2,,32.1,-299,-721,-17,1019.71,31.6,0
"2018-02-01 01:12:42+00",18.5,21.5,,32.1,-360,-718,0,1019.77,31.6,0
"2018-02-01 01:17:42+00",19.8,24.8,,32.3,-463,-748,2,1019.75,31.7,0
"2018-02-01 01:22:42+00",20.1,24.1,,32.3,-544,-731,7,1019.76,31.9,0
"2018-02-01 01:27:42+00",21.1,25.1,,32.5,-574,-773,36,1019.73,32,0
"2018-02-01 01:32:42+00",22.5,25.5,,32.6,-589,-829,33,1019.65,32.2,0
"2018-02-01 01:37:42+00",23.3,26.3,,32.7,-654,-839,28,1019.75,32.3,0
"2018-02-01 01:42:42+00",23.1,27.1,,32.8,-676,-804,3,1019.75,32.4,0
"2018-02-01 01:47:42+00",19.5,24.5,,32.8,-574,-679,33,1019.8,32.4,0
"2018-02-01 01:52:42+00",23.6,24.6,,32.9,-655,-847,12,1019.6,32.5,0
"2018-02-01 01:57:42+00",22.4,24.4,,32.9,-699,-750,12,1019.63,32.6,0
"2018-02-01 02:02:42+00",21.5,24.5,,33.1,-670,-704,25,1019.78,32.7,0
"2018-02-01 02:07:42+00",23.5,26.5,,33.2,-714,-775,22,1019.75,32.7,0
"2018-02-01 02:12:42+00",24.2,27.2,,33.2,-762,-771,29,1019.69,32.9,0
"2018-02-01 02:17:42+00",27.0,31.0,,33.4,-853,-877,21,1019.67,32.9,0
"2018-02-01 02:22:42+00",25.7,30.7,,33.3,-827,-795,20,1019.52,32.9,0
"2018-02-01 02:27:42+00",23.3,28.3,,33.3,-760,-679,18,1019.38,32.9,0
"2018-02-01 02:32:42+00",22.4,27.4,,33.3,-696,-709,15,1019.35,32.9,0
"2018-02-01 02:37:42+00",25.8,29.8,,33.4,-771,-878,7,1019.1,32.9,0
"2018-02-01 02:42:42+00",24.0,28.0,,33.4,-763,-785,33,1019.16,32.9,0
"2018-02-01 02:47:42+00",22.8,27.8,,33.4,-719,-707,21,1019.27,32.9,0
"2018-02-01 02:52:42+00",23.0,27.0,,33.5,-718,-753,2,1019.16,33,0
"2018-02-01 02:57:42+00",18.5,22.5,,33.4,-532,-652,25,1019.1,32.9,0
"2018-02-01 03:02:42+00",22.8,25.8,,33.7,-679,-792,15,1019.04,33.1,0
"2018-02-01 03:07:42+00",19.7,23.7,,33.6,-513,-735,27,1018.86,33.2,0
"2018-02-01 03:12:42+00",23.3,27.3,,33.7,-524,-881,-8,1018.45,33.3,0
"2018-02-01 03:17:42+00",20.0,25.0,,33.7,-418,-776,5,1018.14,33.3,0
"2018-02-01 03:22:42+00",24.6,28.6,,33.9,-461,-957,-16,1017.93,33.5,0
"2018-02-01 03:27:42+00",25.7,28.7,,34.2,-595,-964,7,1018.01,33.7,0
"2018-02-01 03:32:42+00",24.0,26.0,,34.5,-635,-882,6,1018.24,33.9,0
"2018-02-01 03:37:42+00",27.2,30.2,,34.7,-645,-1018,-9,1018.27,34.1,0
"2018-02-01 03:42:42+00",21.7,25.7,,34.7,-547,-811,17,1018.34,34.2,0
"2018-02-01 03:47:42+00",23.4,28.4,,34.8,-662,-837,8,1018.56,34.3,0
"2018-02-01 03:52:42+00",23.6,26.6,,34.9,-721,-782,6,1018.57,34.3,0
"2018-02-01 03:57:42+00",22.4,25.4,,34.9,-667,-764,29,1018.64,34.3,0
"2018-02-01 04:02:42+00",20.7,23.7,,34.9,-594,-732,11,1018.59,34.3,0
"2018-02-01 04:07:42+00",20.9,22.9,,35.1,-586,-745,3,1018.48,34.4,0
"2018-02-01 04:12:42+00",24.7,28.7,,35.3,-654,-897,6,1018.3,34.6,0
"2018-02-01 04:17:42+00",21.9,25.9,,35.2,-631,-765,5,1018.29,34.6,0
"2018-02-01 04:22:42+00",21.9,24.9,,35.3,-613,-785,15,1018.26,34.6,0
"2018-02-01 04:27:42+00",19.8,24.8,,35.2,-560,-705,13,1018.18,34.6,0
"2018-02-01 04:32:42+00",21.8,24.8,,35.3,-612,-774,13,1018.3,34.5,0
"2018-02-01 04:37:42+00",19.2,22.2,,35.3,-546,-693,28,1018.3,34.6,0
"2018-02-01 04:42:42+00",23.1,28.1,,35.6,-639,-820,3,1018.4,34.7,0
"2018-02-01 04:47:42+00",23.5,29.5,,35.5,-519,-892,-8,1017.81,34.8,0
"2018-02-01 04:52:42+00",23.2,26.2,,35.6,-571,-863,-15,1017.81,34.9,0
"2018-02-01 04:57:42+00",18.5,24.5,,35.4,-440,-703,16,1017.74,34.7,0
"2018-02-01 05:02:42+00",19.5,24.5,,35.6,-491,-730,22,1017.63,34.8,0
"2018-02-01 05:07:42+00",19.7,24.7,,35.6,-567,-690,9,1017.91,34.8,0
"2018-02-01 05:12:42+00",19.9,22.9,,35.7,-629,-620,33,1018.14,34.9,0
"2018-02-01 05:17:42+00",20.5,23.5,,35.6,-626,-694,21,1018.07,34.8,0
"2018-02-01 05:22:42+00",20.9,24.9,,35.7,-604,-739,9,1017.94,34.9,0
"2018-02-01 05:27:42+00",18.9,21.9,,35.5,-529,-686,18,1017.66,34.8,0
"2018-02-01 05:32:42+00",19.7,21.7,,35.6,-589,-667,-6,1017.89,34.8,0
"2018-02-01 05:37:42+00",18.6,20.6,,35.5,-567,-639,14,1017.81,34.7,0
"2018-02-01 05:42:42+00",18.8,21.8,,35.5,-559,-648,15,1017.77,34.6,0
"2018-02-01 05:47:42+00",18.9,20.9,,35.4,-580,-621,9,1017.8,34.5,0
"2018-02-01 05:52:42+00",18.5,22.5,,35.6,-552,-636,17,1017.87,34.7,0
"2018-02-01 05:57:42+00",17.7,22.7,,35.7,-497,-630,13,1017.56,34.9,0
"2018-02-01 06:02:42+00",19.6,23.6,,35.5,-501,-729,13,1017.5,34.7,0
"2018-02-01 06:07:42+00",20.8,25.8,,35.7,-577,-754,1,1017.31,34.8,0
"2018-02-01 06:12:42+00",19.7,23.7,,35.7,-526,-717,-11,1017.34,34.8,0
"2018-02-01 06:17:42+00",18.7,21.7,,35.6,-536,-658,3,1017.35,34.8,0
"2018-02-01 06:22:42+00",19.0,23.0,,35.5,-491,-705,7,1017.15,34.7,0
"2018-02-01 06:27:42+00",18.5,23.5,,35.5,-496,-688,6,1017.16,34.7,0
"2018-02-01 06:32:42+00",19.6,22.6,,35.6,-543,-702,-1,1017.27,34.8,0
"2018-02-01 06:37:42+00",18.1,22.1,,35.5,-487,-655,11,1017.26,34.7,0
"2018-02-01 06:42:42+00",17.6,20.6,,35.5,-457,-651,12,1017.28,34.7,0
"2018-02-01 06:47:42+00",17.6,20.6,,35.5,-456,-651,4,1017.12,34.7,0
"2018-02-01 06:52:42+00",19.9,22.9,,35.7,-574,-694,-12,1017.17,34.8,0
"2018-02-01 06:57:42+00",18.5,21.5,,35.6,-529,-665,13,1017.32,34.7,0
"2018-02-01 07:02:42+00",17.0,20.0,,35.6,-493,-603,12,1017.38,34.7,0
"2018-02-01 07:07:42+00",17.4,21.4,,35.5,-492,-618,2,1017.33,34.7,0
"2018-02-01 07:12:42+00",16.2,18.2,,35.5,-466,-581,9,1017.3,34.6,0
"2018-02-01 07:17:42+00",16.4,18.4,,35.5,-462,-586,13,1017.23,34.5,0
"2018-02-01 07:22:42+00",17.6,19.6,,35.6,-501,-626,11,1017.28,34.6,0
"2018-02-01 07:27:42+00",15.9,18.9,,35.5,-445,-575,10,1017.24,34.6,0
"2018-02-01 07:32:42+00",17.0,21.0,,35.7,-477,-600,2,1017.26,34.7,0
"2018-02-01 07:37:42+00",16.1,18.1,,35.6,-459,-567,4,1017.39,34.7,0
"2018-02-01 07:42:42+00",16.7,18.7,,35.7,-501,-579,-2,1017.34,34.7,0
"2018-02-01 07:47:42+00",15.5,17.5,,35.6,-453,-544,12,1017.35,34.7,0
"2018-02-01 07:52:42+00",16.0,19.0,,35.6,-449,-584,17,1017.29,34.7,0
"2018-02-01 07:57:42+00",14.6,16.6,,35.5,-397,-527,12,1017.36,34.6,0
"2018-02-01 08:02:42+00",16.1,19.1,,35.5,-423,-591,5,1017.23,34.6,0
"2018-02-01 08:07:42+00",14.7,16.7,,35.5,-413,-525,18,1017.31,34.6,0
"2018-02-01 08:12:42+00",16.6,19.6,,35.6,-455,-601,24,1017.11,34.6,0
"2018-02-01 08:17:42+00",15.3,18.3,,35.6,-446,-536,18,1017.15,34.6,0
"2018-02-01 08:22:42+00",15.0,18.0,,35.5,-417,-542,6,1017.17,34.6,0
"2018-02-01 08:27:42+00",15.1,17.1,,35.6,-418,-543,-2,1017.1,34.5,0
"2018-02-01 08:32:42+00",14.3,17.3,,35.4,-402,-513,0,1017.05,34.4,0
"2018-02-01 08:37:42+00",14.6,17.6,,35.5,-411,-523,11,1016.93,34.5,0
"2018-02-01 08:42:42+00",14.3,16.3,,35.4,-402,-512,9,1016.93,34.4,0
"2018-02-01 08:47:42+00",15.2,17.2,,35.4,-413,-548,-3,1016.94,34.4,0
"2018-02-01 08:52:42+00",14.0,16.0,,35.5,-405,-489,20,1016.87,34.3,0
"2018-02-01 08:57:42+00",15.2,17.2,,35.5,-417,-554,-3,1016.85,34.4,0
"2018-02-01 09:02:42+00",14.6,16.6,,35.3,-393,-531,2,1016.76,34.3,0
"2018-02-01 09:07:42+00",14.0,16.0,,35.3,-376,-515,6,1016.73,34.3,0
"2018-02-01 09:12:42+00",16.1,18.1,,35.5,-436,-590,-2,1016.61,34.5,0
"2018-02-01 09:17:42+00",15.2,17.2,,35.5,-412,-546,-1,1016.72,34.5,0
"2018-02-01 09:22:42+00",15.1,17.1,,35.5,-448,-518,3,1016.74,34.5,0
"2018-02-01 09:27:42+00",14.9,16.9,,35.5,-405,-536,5,1016.68,34.5,0
"2018-02-01 09:32:42+00",14.3,16.3,,35.5,-426,-482,-6,1016.66,34.6,0
"2018-02-01 09:37:42+00",12.6,14.6,,35.3,-375,-434,12,1016.73,34.4,0
"2018-02-01 09:42:42+00",13.7,15.7,,35.3,-379,-491,3,1016.74,34.4,0
"2018-02-01 09:47:42+00",13.0,15.0,,35.3,-363,-464,6,1016.61,34.4,0
"2018-02-01 09:52:42+00",14.3,17.3,,35.3,-394,-513,1,1016.51,34.4,0
"2018-02-01 09:57:42+00",13.6,15.6,,35.3,-374,-493,6,1016.44,34.4,0
"2018-02-01 10:02:42+00",13.8,15.8,,35.4,-384,-487,5,1016.43,34.5,0
"2018-02-01 10:07:42+00",14.4,15.4,,35.4,-394,-517,-2,1016.41,34.5,0
"2018-02-01 10:12:42+00",13.0,16.0,,35.4,-388,-445,2,1016.66,34.5,0
"2018-02-01 10:17:42+00",13.3,15.3,,35.4,-410,-442,6,1016.7,34.5,0
"2018-02-01 10:22:42+00",14.6,17.6,,35.5,-455,-473,13,1016.59,34.6,0
"2018-02-01 10:27:42+00",14.6,16.6,,35.6,-427,-501,4,1016.39,34.7,0
"2018-02-01 10:32:42+00",14.2,17.2,,35.6,-451,-447,15,1016.54,34.8,0
"2018-02-01 10:37:42+00",13.2,15.2,,35.6,-410,-431,12,1016.41,34.8,0
"2018-02-01 10:42:42+00",14.2,16.2,,35.6,-450,-452,6,1016.45,34.9,0
"2018-02-01 10:47:42+00",14.7,16.7,,35.6,-464,-460,6,1016.36,34.9,0
"2018-02-01 10:52:42+00",14.0,17.0,,35.6,-456,-405,18,1016.5,34.9,0
"2018-02-01 10:57:42+00",13.9,16.9,,35.7,-459,-394,7,1016.56,34.9,0
"2018-02-01 11:02:42+00",15.3,17.3,,35.6,-529,-399,16,1016.83,34.9,0
"2018-02-01 11:07:42+00",14.1,16.1,,35.6,-490,-375,15,1016.83,34.9,0
"2018-02-01 11:12:42+00",13.1,16.1,,35.6,-410,-405,-9,1016.43,34.9,0
"2018-02-01 11:17:42+00",13.1,14.1,,35.5,-396,-441,0,1016.38,34.9,0
"2018-02-01 11:22:42+00",12.2,15.2,,35.5,-374,-407,10,1016.48,34.8,0
"2018-02-01 11:27:42+00",12.2,15.2,,35.4,-379,-396,2,1016.4,34.8,0
"2018-02-01 11:32:42+00",14.5,16.5,,35.5,-467,-433,-1,1016.63,34.8,0
"2018-02-01 11:37:42+00",14.9,15.9,,35.6,-481,-444,4,1016.52,34.9,0
"2018-02-01 11:42:42+00",13.4,15.4,,35.6,-433,-400,7,1016.6,35,0
"2018-02-01 11:47:42+00",13.9,15.9,,35.6,-457,-400,0,1016.68,35,0
"2018-02-01 11:52:42+00",12.7,14.7,,35.6,-448,-348,9,1016.86,34.9,0
"2018-02-01 11:57:42+00",13.3,16.3,,35.6,-437,-384,7,1016.73,34.9,0
"2018-02-01 12:02:42+00",13.8,15.8,,35.6,-449,-406,15,1016.6,34.9,0
"2018-02-01 12:07:42+00",13.1,16.1,,35.6,-420,-393,-3,1016.51,34.9,0
"2018-02-01 12:12:42+00",12.0,13.0,,35.6,-377,-398,11,1016.46,34.9,0
"2018-02-01 12:17:42+00",13.3,16.3,,35.7,-424,-412,10,1016.36,35.1,0
"2018-02-01 12:22:42+00",12.6,14.6,,35.8,-376,-423,9,1016.2,35.2,0
"2018-02-01 12:27:42+00",14.9,17.9,,36,-466,-487,1,1016.1,35.3,0
"2018-02-01 12:32:42+00",14.6,17.6,,36,-434,-495,3,1016.14,35.4,0
"2018-02-01 12:37:42+00",13.6,15.6,,36,-427,-423,-5,1016.12,35.4,0
"2018-02-01 12:42:42+00",13.5,15.5,,36,-410,-454,13,1016.18,35.5,0
"2018-02-01 12:47:42+00",14.6,17.6,,36.1,-506,-396,29,1016.46,35.5,0
"2018-02-01 12:52:42+00",14.5,17.5,,36.2,-474,-415,-10,1016.19,35.6,0
"2018-02-01 12:57:42+00",13.7,16.7,,36.1,-431,-428,15,1016.21,35.6,0
"2018-02-01 13:02:42+00",12.0,13.0,,36.1,-384,-355,15,1016.21,35.7,0.2
"2018-02-01 13:07:42+00",12.2,13.2,,36.2,-400,-354,23,1016.26,35.8,2.8
"2018-02-01 13:12:42+00",10.9,12.9,,36.3,-356,-314,18,1016.29,35.9,7.4
"2018-02-01 13:17:42+00",13.4,14.4,,36.3,-430,-416,8,1016.4,36,16.7
"2018-02-01 13:22:42+00",11.1,13.1,,36.4,-361,-335,24,1016.38,36.1,21
"2018-02-01 13:27:42+00",12.2,15.2,,36.4,-402,-348,15,1016.32,36.2,26.6
"2018-02-01 13:32:42+00",11.7,13.7,,36.5,-377,-366,7,1016.32,36.3,43.5
"2018-02-01 13:37:42+00",13.2,15.2,,36.7,-417,-421,11,1016.25,36.6,54.2
"2018-02-01 13:42:42+00",10.8,13.8,,36.8,-344,-331,21,1016.15,36.7,42.3
"2018-02-01 13:47:42+00",13.0,14.0,,36.9,-415,-389,9,1016.17,36.9,42.4
"2018-02-01 13:52:42+00",12.7,15.7,,36.9,-421,-372,18,1016.14,36.9,37.9
"2018-02-01 13:57:42+00",12.9,14.9,,37,-400,-433,7,1016.14,37,45.7
"2018-02-01 14:02:42+00",11.3,13.3,,37.1,-348,-380,19,1016.3,37.1,49.7
"2018-02-01 14:07:42+00",12.7,14.7,,37.1,-426,-356,8,1016.46,37.2,52.8
"2018-02-01 14:12:42+00",11.2,13.2,,37.2,-377,-306,15,1016.44,37.3,63.4
"2018-02-01 14:17:42+00",10.8,12.8,,37.4,-364,-298,37,1016.35,37.5,69.8
"2018-02-01 14:22:42+00",12.5,14.5,,37.4,-396,-387,11,1016.23,37.6,67.6
"2018-02-01 14:27:42+00",15.8,17.8,,37.5,-460,-548,-6,1016.1,37.7,62.4
"2018-02-01 14:32:42+00",14.0,16.0,,37.6,-403,-496,16,1016.11,37.8,65.5
"2018-02-01 14:37:42+00",14.3,16.3,,37.6,-447,-461,23,1016.18,37.8,56.7
"2018-02-01 14:42:42+00",16.8,18.8,,37.7,-501,-571,2,1016.12,37.8,55.7
"2018-02-01 14:47:42+00",16.4,19.4,,37.7,-517,-505,6,1016.16,37.8,61.1
"2018-02-01 14:52:42+00",16.8,18.8,,37.8,-535,-531,7,1016.13,37.9,65
"2018-02-01 14:57:42+00",16.5,18.5,,37.9,-504,-535,-1,1016.05,38,69.4
"2018-02-01 15:02:42+00",15.6,18.6,,38,-506,-461,15,1016.18,38.1,64.6
"2018-02-01 15:07:42+00",14.9,16.9,,38,-480,-448,21,1016.19,38.1,60.8
"2018-02-01 15:12:42+00",14.5,16.5,,38.1,-457,-454,17,1016.33,38.2,64.7
"2018-02-01 15:17:42+00",16.3,19.3,,38.2,-522,-488,-4,1016.3,38.3,70.6
"2018-02-01 15:22:42+00",14.6,17.6,,38.2,-445,-493,14,1016.18,38.4,82.5
"2018-02-01 15:27:42+00",14.6,16.6,,38.3,-458,-476,16,1016.16,38.5,90.8
"2018-02-01 15:32:42+00",16.7,19.7,,38.4,-535,-531,18,1016.15,38.7,96.7
"2018-02-01 15:37:42+00",17.1,19.1,,38.5,-518,-570,18,1016.1,38.8,99.8
"2018-02-01 15:42:42+00",16.4,20.4,,38.5,-501,-552,13,1016.04,38.9,109
"2018-02-01 15:47:42+00",15.6,18.6,,38.6,-480,-526,22,1015.98,39,132.4
"2018-02-01 15:52:42+00",16.0,18.0,,38.8,-504,-527,15,1015.91,39.3,143.8
"2018-02-01 15:57:42+00",15.5,18.5,,39,-466,-530,28,1015.73,39.6,141
"2018-02-01 16:02:42+00",17.3,19.3,,39.2,-509,-603,2,1015.72,39.8,153.8
"2018-02-01 16:07:42+00",16.0,18.0,,39.4,-484,-544,8,1015.62,40.1,187.2
"2018-02-01 16:12:42+00",16.2,19.2,,39.5,-541,-447,14,1015.67,40.3,176.1
"2018-02-01 16:17:42+00",14.8,17.8,,39.6,-429,-526,27,1015.58,40.5,192.9
"2018-02-01 16:22:42+00",13.6,16.6,,39.8,-409,-465,43,1015.49,40.7,223.1
"2018-02-01 16:27:42+00",14.5,16.5,,40,-381,-532,3,1015.31,41,195.8
"2018-02-01 16:32:42+00",15.3,17.3,,40,-415,-563,6,1015.18,41.1,173.2
"2018-02-01 16:37:42+00",15.3,18.3,,40.1,-424,-560,4,1015.09,41.1,167.2
"2018-02-01 16:42:42+00",15.2,17.2,,40.2,-386,-565,7,1014.97,41.1,160.1
"2018-02-01 16:47:42+00",16.1,18.1,,40.3,-422,-591,-7,1014.88,41,149
"2018-02-01 16:52:42+00",13.7,14.7,,40.5,-317,-516,9,1014.84,41.3,166.4
"2018-02-01 16:57:42+00",12.1,14.1,,40.8,-286,-459,26,1014.69,41.7,185.6
"2018-02-01 17:02:42+00",12.5,14.5,,41,-333,-465,18,1014.67,41.9,129.6
"2018-02-01 17:07:42+00",13.4,15.4,,40.9,-291,-511,2,1014.51,41.6,113.5
"2018-02-01 17:12:42+00",13.7,16.7,,41,-357,-512,16,1014.48,41.6,99.1
"2018-02-01 17:17:42+00",14.1,15.1,,40.9,-363,-515,0,1014.37,41.5,102.7
"2018-02-01 17:22:42+00",14.3,17.3,,41.1,-332,-549,15,1014.13,41.6,95.9
"2018-02-01 17:27:42+00",14.5,17.5,,41.2,-312,-555,5,1013.96,41.7,117.9
"2018-02-01 17:32:42+00",14.2,16.2,,41.3,-295,-546,-6,1013.99,41.8,119.4
"2018-02-01 17:37:42+00",14.3,16.3,,41.4,-316,-544,-1,1013.87,41.9,106.8
"2018-02-01 17:42:42+00",13.7,15.7,,41.5,-320,-512,-9,1013.89,42,83.4
"2018-02-01 17:47:42+00",14.0,17.0,,41.4,-312,-536,-7,1013.77,41.9,81.6
"2018-02-01 17:52:42+00",13.7,15.7,,41.4,-290,-517,-1,1013.65,41.8,82.8
"2018-02-01 17:57:42+00",14.7,17.7,,41.3,-331,-561,4,1013.61,41.8,86.9
"2018-02-01 18:02:42+00",14.0,16.0,,41.5,-312,-530,-4,1013.63,41.9,73
"2018-02-01 18:07:42+00",13.6,14.6,,41.5,-294,-516,5,1013.5,41.9,71.6
"2018-02-01 18:12:42+00",13.0,16.0,,41.7,-255,-507,3,1013.47,42.1,70.8
"2018-02-01 18:17:42+00",11.1,12.1,,41.8,-220,-424,-7,1013.37,42.2,81.2
"2018-02-01 18:22:42+00",12.6,14.6,,42,-210,-499,-11,1013.37,42.5,101.1
"2018-02-01 18:27:42+00",10.8,13.8,,42.2,-107,-453,0,1013.24,42.8,117.1
"2018-02-01 18:32:42+00",11.4,14.4,,41.9,-128,-480,-3,1013.27,42.5,89.7
"2018-02-01 18:37:42+00",11.4,14.4,,41.7,-145,-467,-11,1013.18,42.3,86.6
"2018-02-01 18:42:42+00",12.3,15.3,,41.7,-204,-488,3,1013.25,42.3,80.8
"2018-02-01 18:47:42+00",12.1,14.1,,41.6,-182,-481,-8,1013.24,42.3,87.9
"2018-02-01 18:52:42+00",11.8,12.8,,41.6,-192,-480,-10,1013.17,42.1,74.1
"2018-02-01 18:57:42+00",13.8,16.8,,41.5,-243,-539,-5,1013.13,42,65.4
"2018-02-01 19:02:42+00",14.8,16.8,,41.5,-258,-574,-3,1013.19,42,65.9
"2018-02-01 19:07:42+00",13.0,14.0,,41.6,-233,-506,-6,1013.01,42,61.2
"2018-02-01 19:12:42+00",11.3,13.3,,41.5,-183,-454,5,1013.09,41.9,61.7
"2018-02-01 19:17:42+00",12.0,14.0,,41.8,-261,-457,2,1012.92,42.1,62.3
"2018-02-01 19:22:42+00",12.1,14.1,,41.9,-238,-470,0,1012.84,42.2,57.2
"2018-02-01 19:27:42+00",12.1,14.1,,41.9,-270,-458,7,1012.9,42.3,59
"2018-02-01 19:32:42+00",11.6,13.6,,42.2,-274,-433,-4,1012.85,42.5,62.4
"2018-02-01 19:37:42+00",9.0,10.0,,42.5,-247,-321,26,1012.82,42.8,84.8
"2018-02-01 19:42:42+00",10.7,11.7,,42.6,-269,-395,5,1012.86,43.1,141.9
"2018-02-01 19:47:42+00",11.0,13.0,,43,-299,-394,-1,1012.81,43.8,173.1
"2018-02-01 19:52:42+00",11.6,12.6,,43.3,-350,-374,-13,1012.73,44.3,148
"2018-02-01 19:57:42+00",10.7,12.7,,43.4,-250,-404,2,1012.86,44.3,130.3
"2018-02-01 20:02:42+00",8.5,9.5,,43.4,-253,-288,35,1012.82,44.3,116.1
"2018-02-01 20:07:42+00",10.0,12.0,,43.2,-146,-409,-9,1012.75,44.1,91
"2018-02-01 20:12:42+00",12.1,13.1,,43,-195,-477,-13,1012.77,43.7,82.8
"2018-02-01 20:17:42+00",9.9,13.9,,43,-153,-392,-6,1012.74,43.7,93
"2018-02-01 20:22:42+00",8.9,10.9,,43.2,-101,-364,10,1012.72,43.8,103.2
"2018-02-01 20:27:42+00",11.7,13.7,,43,-96,-490,-18,1012.71,43.6,90.7
"2018-02-01 20:32:42+00",9.4,12.4,,42.9,-108,-386,6,1012.79,43.5,82.4
"2018-02-01 20:37:42+00",10.0,14.0,,42.9,-107,-408,9,1012.72,43.4,51.4
"2018-02-01 20:42:42+00",11.0,13.0,,42.4,-96,-457,-22,1012.77,42.8,46.8
"2018-02-01 20:47:42+00",11.3,13.3,,41.8,-107,-465,-12,1012.71,42.2,44.8
"2018-02-01 20:52:42+00",11.7,13.7,,41.5,-143,-480,1,1012.91,41.8,31
"2018-02-01 20:57:42+00",11.0,14.0,,41.3,-117,-451,3,1012.95,41.6,27.5
"2018-02-01 21:02:42+00",10.3,12.3,,41.1,-133,-422,6,1013.05,41.4,21.4
"2018-02-01 21:07:42+00",12.2,16.2,,40.9,-187,-492,1,1012.93,41.1,11.2
"2018-02-01 21:12:42+00",10.8,12.8,,40.9,-181,-436,-4,1012.96,41,3.5
"2018-02-01 21:17:42+00",12.3,14.3,,41,-207,-484,-14,1012.93,41,1.9
"2018-02-01 21:22:42+00",13.7,15.7,,41.2,-263,-537,0,1013.17,41.1,1.5
"2018-02-01 21:27:42+00",11.6,13.6,,41.3,-245,-444,3,1013.25,41.2,0.4
"2018-02-01 21:32:42+00",11.9,13.9,,41.3,-268,-446,-10,1013.26,41.1,0
"2018-02-01 21:37:42+00",10.4,11.4,,41.3,-200,-404,1,1013.17,41.1,0
"2018-02-01 21:42:42+00",10.7,11.7,,41.4,-174,-427,-4,1013.15,41.1,0
"2018-02-01 21:47:42+00",9.3,12.3,,41.4,-138,-377,1,1013.13,41.1,0
"2018-02-01 21:52:42+00",9.2,11.2,,41.4,-150,-362,1,1013.27,41.1,0
"2018-02-01 21:57:42+00",10.0,12.0,,41.2,-101,-411,-14,1013.03,41,0
"2018-02-01 22:02:42+00",9.0,11.0,,41.1,-131,-367,-5,1013.09,40.9,0
"2018-02-01 22:07:42+00",11.0,13.0,,41,-153,-448,-2,1013.06,40.7,0
"2018-02-01 22:12:42+00",10.3,13.3,,40.9,-133,-422,0,1012.93,40.6,0
"2018-02-01 22:17:42+00",10.6,11.6,,40.9,-211,-410,10,1013.05,40.5,0
"2018-02-01 22:22:42+00",10.4,11.4,,41,-212,-401,0,1013,40.5,0
"2018-02-01 22:27:42+00",10.2,11.2,,41,-189,-395,1,1012.94,40.5,0
"2018-02-01 22:32:42+00",10.0,12.0,,40.9,-157,-397,-3,1012.92,40.5,0
"2018-02-01 22:37:42+00",9.2,11.2,,41,-204,-348,2,1012.88,40.4,0
"2018-02-01 22:42:42+00",10.4,12.4,,41.1,-211,-402,1,1012.8,40.5,0
"2018-02-01 22:47:42+00",9.2,11.2,,41.1,-138,-362,0,1012.76,40.5,0
"2018-02-01 22:52:42+00",9.2,10.2,,41,-116,-376,10,1012.71,40.5,0
"2018-02-01 22:57:42+00",10.3,12.3,,41.1,-133,-423,-8,1012.65,40.5,0
"2018-02-01 23:02:42+00",11.3,13.3,,41,-144,-461,4,1012.59,40.5,0
"2018-02-01 23:07:42+00",11.3,14.3,,41.1,-159,-472,10,1012.58,40.5,0
"2018-02-01 23:12:42+00",13.2,14.2,,41.2,-230,-522,-7,1012.79,40.6,0
"2018-02-01 23:17:42+00",12.0,15.0,,41.4,-163,-488,-5,1012.65,40.7,0
"2018-02-01 23:22:42+00",11.6,13.6,,41.2,-147,-483,12,1012.73,40.5,0
"2018-02-01 23:27:42+00",10.8,13.8,,40.9,-131,-452,11,1012.68,40.3,0
"2018-02-01 23:32:42+00",12.4,15.4,,40.4,-195,-502,0,1012.74,40,0
"2018-02-01 23:37:42+00",12.2,14.2,,40.3,-237,-470,5,1012.8,39.7,0
"2018-02-01 23:42:42+00",11.3,12.3,,40.2,-275,-423,-1,1012.96,39.5,0
"2018-02-01 23:47:42+00",9.6,10.6,,39.8,-269,-339,4,1012.95,39.2,0
"2018-02-01 23:52:42+00",8.7,9.7,,39.7,-279,-259,6,1012.76,39,0
"2018-02-01 23:57:42+00",8.5,9.5,,39.7,-272,-253,5,1012.79,38.7,0
